Showing default

COSMOS 1998, 19789

Orbit data source: Space-Track

COSMOS 1998, 19789 is a payload satellite owned by UNKS (CIS) in LEO that was launched on Fri, 10 Feb 1989 UTC via a TSIKLON-3 launch vehicle from the Plesetsk Missile And Space Complex (PKMTR). Payload-class satellites include a variety of spacecraft equipped with specific instruments for various scientific and technological missions. These include communications satellites like Starlink; space stations such as the ISS; scientific satellites like the Hubble; Earth observation satellites from companies like Planet Labs, Umbra, and HawkEye 360; GPS; miniature CubeSats for education and research; and military/defense satellites.

Loading next visibility...
Identifier
19789, 1989-009E
Orbit
LEO
Country
Flag of CISCIS
Related business
Manufacturer
NPO PM
Mission
Defense Communications
Bus & Motor
STRELA-3, Unknown motor
Mass
225 kg wet, 225 kg dry
Launch date (UTC)
1989-02-10 (37 years ago)
Launch vehicle
TSIKLON-3
Launch site
Plesetsk Missile And Space Complex (PKMTR)
Object type
Payload
Rocket body
Debris
Shape & HBR
Cyl, 0.8 m
Radar Cross Section
1.257 m², Large (>1 m²)

Expand to show TLE details & history
Last TLE update: 1 day ago

TLE from 1 day ago
0 COSMOS 1998
1 19789U 89009E   25306.46583123  .00000052  00000-0  21991-3 0  9990
2 19789  82.6072 116.2362 0016827  78.5868 281.7113 12.64926340695356
Epoch: 2025-11-02T11:10Z
TLE epoch observation values (Epoch: 2025-11-02T11:10:47.818Z)
Latitude
-0.00008°
Longitude
-93.44421°
Altitude
1,402.774 km
Speed
7.16 km/s
True Right ascension
07h 44m 56s
True Declination
0° 00' 00"
Sunlit
Object was in daylight at epoch
Visualization orbit readout
Latitude
Unknown
Longitude
Unknown
Altitude
Unknown
Speed
Unknown
Apparent Right ascension
Unknown
Apparent Declination
Unknown
Sunlit
N/A
Visualization observer readout
Local Sidereal Time
06:47:56
Azimuth
Unknown
Elevation
Unknown
Doppler factor
Unknown
Orbital elements
Apogee altitude
1,413.081 km
Perigee altitude
1,386.904 km
Semi-major axis
7,778.13 km
Eccentricity
0.00168
Inclination
82.6072°
RAAN
116.2362°
Arg. of periapsis
78.5868°
True anomaly
281.52241°
Mean anomaly
281.7113°
Eccentric anomaly
281.61686°
Mean motion
3.16396 °/min
Orbital period
113.78 mins
BSTAR
0.00021991
Loading maneuver chart data...
Computing Atmospheric mass density...
Loading historical data...
Loading historical data...
Loading historical data...
Loading historical data...
Loading historical data...
Loading historical data...
Loading historical data...

Documentation

Showing up to 5 results
|